This demonstration page uses our WeatherBlox Daily Observations layout. Learn more.

Left ArrowRight Arrow

41.55636, -103.73856

Hourly Observations for April 12, 2021

Temp ( °F °C ) Dew Point ( °F °C ) Humidity (%) Winds ( mph kmh ) Pressure ( in mb ) Visibility ( mi km ) Precip ( " mm )
12:58 am 00:58 Mostly Clear 27 -3 14 -9.8 60 60 NNW 7 11 30.12 1020 10 16.0934 0 0
1:58 am 01:58 Partly Cloudy 25 -3.8 15 -9.7 64 64 N 9 15 30.11 1020 10 16.0934 0 0
2:58 am 02:58 Mostly Cloudy 24 -4.5 15 -9.2 70 70 NNW 9 15 30.11 1020 10 16.0934 0 0
3:58 am 03:58 Cloudy 27 -2.9 17 -8.3 67 67 N 12 19 30.11 1020 10 16.0934 0 0
4:58 am 04:58 Cloudy 25 -3.8 17 -8.6 70 70 N 9 15 30.14 1021 10 16.0934 0 0
5:58 am 05:58 Mostly Cloudy 24 -4.2 17 -8.2 74 74 N 10 17 30.14 1021 10 16.0934 0 0
6:58 am 06:58 Cloudy 26 -3.6 18 -8 72 72 N 13 20 30.17 1022 10 16.0934 0 0
7:58 am 07:58 Cloudy 27 -2.6 18 -7.8 68 68 NNW 20 31 30.21 1023 10 16.0934 0 0
8:58 am 08:58 Cloudy 28 -2.2 18 -7.7 66 66 NNW 18 30 30.22 1023 10 16.0934 0 0
9:58 am 09:58 Mostly Cloudy 29 -1.6 16 -8.8 58 58 NNW 18 30 30.23 1024 10 16.0934 0 0
10:58 am 10:58 Cloudy 32 0 15 -9.4 50 50 N 16 26 30.21 1023 10 16.0934 0 0
11:58 am 11:58 Mostly Cloudy 36 2.1 16 -9 44 44 N 16 26 30.2 1023 10 16.0934 0 0
12:58 pm 12:58 Mostly Cloudy 37 2.7 15 -9.3 41 41 N 21 33 30.21 1023 10 16.0934 0 0
1:58 pm 13:58 Mostly Sunny 38 3.1 14 -10.2 37 37 NNW 15 24 30.21 1023 10 16.0934 0 0
2:58 pm 14:58 Mostly Cloudy 39 3.8 11 -11.5 32 32 N 13 20 30.21 1023 10 16.0934 0 0
3:58 pm 15:58 Mostly Sunny 41 4.8 11 -11.8 29 29 NNW 17 28 30.19 1022 10 16.0934 0 0
4:58 pm 16:58 Mostly Sunny 39 3.9 9 -12.8 29 29 N 15 24 30.21 1023 10 16.0934 0 0
5:58 pm 17:58 Mostly Cloudy 39 3.9 9 -12.8 29 29 NNW 15 24 30.22 1024 10 16.0934 0 0
6:58 pm 18:58 Mostly Cloudy 36 2.1 9 -12.7 33 33 N 12 19 30.26 1025 10 16.0934 0 0
7:58 pm 19:58 Partly Cloudy 32 0.1 9 -12.9 37 37 NNE 9 15 30.29 1026 10 16.0934 0 0
8:58 pm 20:58 Mostly Cloudy 30 -1.3 9 -12.7 42 42 N 10 17 30.33 1027 10 16.0934 0 0
9:58 pm 21:58 Mostly Cloudy 28 -2.2 9 -12.6 45 45 N 9 15 30.35 1028 10 16.0934 0 0
10:58 pm 22:58 Clear 27 -3 11 -11.9 51 51 N 10 17 30.35 1028 10 16.0934 0 0
11:58 pm 23:58 Clear 26 -3.6 12 -11.2 56 56 N 13 20 30.35 1028 10 16.0934 0 0

Powered by AerisWeather